Location: D�derode
(51.8092°N, 10.1065°E)
Time: 05:42:10
(UTC+00:00)

Cosmos 1869 Rocket - Pass Details

Date: 18 April 2021
Orbit: 604 x 634 km, 82.5° (Epoch: 11 May)

Event Time Altitude Azimuth Distance (km) Brightness Sun altitude
Rises 00:58:46 0° 342° (NNW) 2,905 7.7 -23.7°
Reaches altitude 10° 01:01:10 10° 333° (NNW) 1,989 6.6 -23.6°
Enters shadow 01:04:16 30° 293° (WNW) 1,107 4.7 -23.4°
